Location: Chapel Hill
(35.9134°N, 79.0560°W)
Time: 13:42:55
(UTC-04:00)

Transit 2A - Visible Passes

Search period start: 23 June 2025 00:00
Search period end: 03 July 2025 00:00
Orbit: 599 x 947 km, 66.7° (Epoch: 22 June)

Date Brightness Start Highest point End Pass type
(mag) Time Alt. Az. Time Alt. Az. Time Alt. Az.
23 Jun 8.4 01:15:26 10° WNW 01:16:19 10° NW 01:17:12 10° NW visible
23 Jun 6.5 22:58:07 33° ENE 22:58:07 33° ENE 23:00:59 10° NE visible
24 Jun 8.0 00:38:25 14° WNW 00:40:01 17° NW 00:42:50 10° N visible
24 Jun 6.9 22:21:54 23° E 22:21:54 23° E 22:24:31 10° NE visible
25 Jun 7.5 00:02:09 21° W 00:03:49 26° NW 00:07:29 10° N visible
25 Jun 7.3 21:45:21 14° ESE 21:45:21 14° ESE 21:47:29 10° ENE visible
25 Jun 6.6 23:25:35 25° WSW 23:27:42 42° WNW 23:31:49 10° NNE visible
26 Jun 5.6 22:48:28 19° SW 22:51:38 73° WNW 22:55:58 10° NNE visible
27 Jun 5.4 22:11:13 10° SSW 22:15:38 64° ESE 22:19:55 10° NNE visible
27 Jun 8.6 23:57:24 10° WNW 23:59:01 12° NW 00:00:39 10° NNW visible
28 Jun 6.1 21:35:35 10° S 21:39:41 36° ESE 21:43:40 10° NE visible
28 Jun 8.2 23:19:40 10° W 23:22:45 18° NW 23:25:49 10° N visible
29 Jun 7.5 22:42:43 10° WSW 22:46:34 29° WNW 22:50:22 10° N visible
30 Jun 6.5 22:06:10 10° SW 22:10:27 48° WNW 22:14:39 10° NNE visible
01 Jul 5.6 21:29:58 10° SSW 21:34:23 84° WNW 21:38:44 10° NNE visible
02 Jul 8.8 22:39:37 10° W 22:41:44 13° NW 22:43:50 10° NNW visible
